| time (UTC) | temp C | wind direction | speed KPH | gust KPH | rain 1hr cm | rain 24hr cm | rain mn cm | humidity % | barometer mb |
| 20260503224502 | 25 | 5 | 0.0 | 4.8 | 0.00 | 0.00 | 0.00 | 30 | 1042.7 |
| 20260503223102 | 25 | 5 | 1.6 | 6.4 | 0.00 | 0.00 | 0.00 | 29 | 1042.7 |
| 20260503223003 | 25 | 334 | 0.0 | 6.4 | 0.00 | 0.00 | 0.00 | 31 | 1042.7 |
| 20260503221600 | 25 | 345 | 1.6 | 6.4 | 0.00 | 0.00 | 0.00 | 32 | 1042.7 |
| 20260503220052 | 25 | 340 | 1.6 | 8.0 | 0.00 | 0.00 | 0.00 | 32 | 1042.7 |
| 20260503214548 | 25 | 325 | 0.0 | 4.8 | 0.00 | 0.00 | 0.00 | 31 | 1042.7 |
| 20260503213046 | 24 | 319 | 1.6 | 8.0 | 0.00 | 0.00 | 0.00 | 33 | 1042.7 |
| 20260503211541 | 24 | 330 | 1.6 | 6.4 | 0.00 | 0.00 | 0.00 | 36 | 1042.7 |
| 20260503210039 | 23 | 310 | 1.6 | 9.7 | 0.00 | 0.00 | 0.00 | 36 | 1042.7 |
| 20260503204539 | 23 | 340 | 1.6 | 8.0 | 0.00 | 0.00 | 0.00 | 36 | 1042.7 |
| 20260503203051 | 23 | 5 | 1.6 | 6.4 | 0.00 | 0.00 | 0.00 | 36 | 1042.7 |
| 20260503201534 | 23 | 10 | 1.6 | 4.8 | 0.00 | 0.00 | 0.00 | 39 | 1042.7 |
| 20260503200033 | 23 | 342 | 1.6 | 6.4 | 0.00 | 0.00 | 0.00 | 38 | 1042.7 |
| 20260503194530 | 22 | 12 | 1.6 | 4.8 | 0.00 | 0.00 | 0.00 | 39 | 1042.7 |
| 20260503193026 | 21 | 290 | 0.0 | 4.8 | 0.00 | 0.00 | 0.00 | 43 | 1042.7 |
| 20260503191530 | 21 | 259 | 1.6 | 4.8 | 0.00 | 0.00 | 0.00 | 43 | 1042.7 |
| 20260503190030 | 21 | 336 | 1.6 | 8.0 | 0.00 | 0.00 | 0.00 | 44 | 1042.7 |
| 20260503184524 | 21 | 321 | 1.6 | 6.4 | 0.00 | 0.00 | 0.00 | 43 | 1042.7 |
| 20260503183023 | 21 | 306 | 0.0 | 0.0 | 0.00 | 0.00 | 0.00 | 42 | 1042.7 |
| 20260503181522 | 21 | 83 | 0.0 | 0.0 | 0.00 | 0.00 | 0.00 | 42 | 1042.7 |
| 20260503180021 | 21 | 355 | 1.6 | 4.8 | 0.00 | 0.00 | 0.00 | 43 | 1042.7 |
| 20260503174518 | 21 | 360 | 0.0 | 4.8 | 0.00 | 0.00 | 0.00 | 45 | 1042.7 |
| 20260503173016 | 20 | 5 | 0.0 | 6.4 | 0.00 | 0.00 | 0.00 | 44 | 1042.7 |
| 20260503171513 | 20 | 350 | 3.2 | 8.0 | 0.00 | 0.00 | 0.00 | 45 | 1042.7 |
| 20260503081520 | 16 | 73 | 0.0 | 0.0 | 0.00 | 0.00 | 0.00 | 42 | 1042.7 |
| 20260503071517 | 17 | 355 | 0.0 | 0.0 | 0.00 | 0.00 | 0.00 | 39 | 1042.7 |
| 20260503054508 | 16 | 30 | 0.0 | 0.0 | 0.00 | 0.00 | 0.00 | 41 | 1042.7 |
| 20260503053007 | 16 | 47 | 0.0 | 0.0 | 0.00 | 0.00 | 0.00 | 41 | 1042.7 |
| 20260503051505 | 17 | 47 | 0.0 | 1.6 | 0.00 | 0.00 | 0.00 | 42 | 1042.7 |
| 20260503050010 | 17 | 34 | 0.0 | 6.4 | 0.00 | 0.00 | 0.00 | 43 | 1042.7 |
| 20260503044504 | 17 | 10 | 1.6 | 3.2 | 0.00 | 0.00 | 0.00 | 43 | 1042.7 |
| 20260503043007 | 17 | 5 | 0.0 | 3.2 | 0.00 | 0.00 | 0.00 | 42 | 1042.7 |
| 20260503041505 | 17 | 14 | 0.0 | 6.4 | 0.00 | 0.00 | 0.00 | 43 | 1042.7 |
| 20260503040002 | 17 | 18 | 0.0 | 0.0 | 0.00 | 0.00 | 0.00 | 45 | 1042.7 |
| 20260503034502 | 16 | 336 | 0.0 | 0.0 | 0.00 | 0.00 | 0.00 | 46 | 1042.7 |
| 20260503033002 | 16 | 342 | 0.0 | 0.0 | 0.00 | 0.00 | 0.00 | 48 | 1042.7 |
| 20260503031502 | 17 | 338 | 0.0 | 0.0 | 0.00 | 0.00 | 0.00 | 52 | 1042.7 |
| 20260503030000 | 17 | 355 | 0.0 | 0.0 | 0.00 | 0.00 | 0.00 | 50 | 1042.7 |
| 20260503024600 | 18 | 355 | 0.0 | 0.0 | 0.00 | 0.00 | 0.00 | 48 | 1042.7 |
| 20260503024502 | 18 | 355 | 0.0 | 0.0 | 0.00 | 0.00 | 0.00 | 47 | 1042.7 |
| 20260503023100 | 18 | 355 | 0.0 | 0.0 | 0.00 | 0.00 | 0.00 | 46 | 1042.7 |
| 20260503021601 | 19 | 355 | 0.0 | 0.0 | 0.00 | 0.00 | 0.00 | 46 | 1042.7 |
| 20260503021510 | 19 | 355 | 0.0 | 0.0 | 0.00 | 0.00 | 0.00 | 46 | 1042.7 |
| 20260503020059 | 19 | 355 | 0.0 | 0.0 | 0.00 | 0.00 | 0.00 | 45 | 1042.7 |
| 20260503014501 | 20 | 243 | 0.0 | 0.0 | 0.00 | 0.00 | 0.00 | 44 | 1042.7 |
| 20260503013059 | 20 | 321 | 0.0 | 4.8 | 0.00 | 0.00 | 0.00 | 45 | 1042.7 |
| 20260503011608 | 21 | 355 | 0.0 | 3.2 | 0.00 | 0.00 | 0.00 | 44 | 1042.7 |
| 20260503010058 | 21 | 341 | 0.0 | 6.4 | 0.00 | 0.00 | 0.00 | 42 | 1042.7 |
| 20260503004559 | 21 | 355 | 1.6 | 6.4 | 0.00 | 0.00 | 0.00 | 43 | 1042.7 |
| 20260503003059 | 21 | 355 | 0.0 | 6.4 | 0.00 | 0.00 | 0.00 | 44 | 1042.7 |
| 20260503001607 | 21 | 14 | 3.2 | 6.4 | 0.00 | 0.00 | 0.00 | 44 | 1042.7 |
| 20260503000056 | 21 | 343 | 0.0 | 8.0 | 0.00 | 0.00 | 0.00 | 44 | 1042.7 |
| 20260502234556 | 21 | 5 | 0.0 | 6.4 | 0.00 | 0.00 | 0.00 | 43 | 1042.7 |
| 20260502233057 | 22 | 10 | 0.0 | 8.0 | 0.00 | 0.00 | 0.00 | 42 | 1042.7 |
| 20260502231554 | 22 | 292 | 1.6 | 4.8 | 0.00 | 0.00 | 0.00 | 42 | 1042.7 |
| 20260502230055 | 22 | 355 | 1.6 | 4.8 | 0.00 | 0.00 | 0.00 | 41 | 1042.7 |